This is the latest recevied weather packets stored in our database for station/object W4OTS. If no packets are shown the sender has not sent any weather packets the latest 10 day(s).
| Time | Temp. | Humidity | Pressure | Rain* | Wind** | Luminosity | Snow |
|---|---|---|---|---|---|---|---|
| 1777989428 | 18.89° C | 62% | 1018.7 hPa | 0 mm | - | 655 W/m² | - |
| 1777989125 | 19.44° C | 63% | 1018.4 hPa | 0 mm | - | 604 W/m² | - |
| 1777988820 | 18.89° C | 65% | 1018.6 hPa | 0 mm | - | 550 W/m² | - |
| 1777988518 | 18.89° C | 63% | 1018.5 hPa | 0 mm | - | 479 W/m² | - |
| 1777988215 | 18.89° C | 65% | 1018.4 hPa | 0 mm | - | 530 W/m² | - |
| 1777987911 | 18.33° C | 65% | 1018.5 hPa | 0 mm | - | 493 W/m² | - |
| 1777987607 | 18.33° C | 66% | 1018.2 hPa | 0 mm | - | 444 W/m² | - |
| 1777987305 | 17.78° C | 66% | 1018.4 hPa | 0 mm | - | 422 W/m² | - |
| 1777987001 | 17.78° C | 67% | 1018.6 hPa | 0 mm | - | 372 W/m² | - |
| 1777986699 | 17.22° C | 69% | 1018.4 hPa | 0 mm | - | 367 W/m² | - |
| 1777986397 | 16.67° C | 70% | 1018.6 hPa | 0 mm | - | 346 W/m² | - |
| 1777986096 | 16.11° C | 71% | 1018.5 hPa | 0 mm | - | 102 W/m² | - |
| 1777985791 | 16.11° C | 74% | 1018.6 hPa | 0 mm | - | 52 W/m² | - |
| 1777985488 | 15.56° C | 76% | 1018.4 hPa | 0 mm | - | 50 W/m² | - |
| 1777985184 | 15.56° C | 76% | 1018.4 hPa | 0 mm | - | 48 W/m² | - |
| 1777984876 | 15° C | 78% | 1018.3 hPa | 0 mm | - | 47 W/m² | - |
| 1777984572 | 15° C | 77% | 1018.4 hPa | 0 mm | - | 46 W/m² | - |
| 1777984269 | 14.44° C | 80% | 1018.3 hPa | 0 mm | - | 44 W/m² | - |
| 1777983966 | 14.44° C | 79% | 1018.1 hPa | 0 mm | - | 43 W/m² | - |
| 1777983662 | 13.89° C | 79% | 1018.2 hPa | 0 mm | - | 42 W/m² | - |
| 1777983359 | 13.89° C | 80% | 1018.2 hPa | 0 mm | - | 40 W/m² | - |
| 1777983056 | 13.33° C | 81% | 1018.1 hPa | 0 mm | - | 39 W/m² | - |
| 1777982751 | 13.33° C | 82% | 1018.2 hPa | 0 mm | - | 38 W/m² | - |
| 1777982447 | 13.33° C | 82% | 1018.1 hPa | 0 mm | - | 37 W/m² | - |
| 1777982142 | 12.78° C | 82% | 1018.1 hPa | 0 mm | - | 35 W/m² | - |
* Rain latest hour (hover to see other rain measurements)
** Current wind speed in m/s (hover to see current wind gust speed)